Location: Unspecified
(49.2170°N, 0.0000°E)
Time: 13:16:26
(UTC+00:00)

Transit 4A - Pass Details

Date: 19 June 2019
Orbit: 864 x 981 km, 66.8° (Epoch: 25 August)

Event Time Altitude Azimuth Distance (km) Brightness Sun altitude
Rises 08:32:04 0° 195° (SSW) 3,600 11.0 41.9°
Reaches altitude 10° 08:34:38 10° 191° (S) 2,675 10.4 42.3°
Maximum altitude 08:40:41 52° 117° (ESE) 1,189 10.8 43.2°
Drops below altitude 10° 08:46:52 10° 43° (NE) 2,739 10.8 44.2°
Sets 08:49:30 0° 39° (NE) 3,694 11.2 44.6°
